TimeEST,TemperatureF,Dew PointF,Humidity,Sea Level PressureIn,VisibilityMPH,Wind Direction,Wind SpeedMPH,Gust SpeedMPH,PrecipitationIn,Events,Conditions,WindDirDegrees,DateUTC
12:15 AM,48.4,48.4,100,30.13,7.0,North,-9999.0,-,N/A,,Overcast,0,2012-12-07 05:15:00
12:35 AM,48.2,48.2,100,30.13,7.0,North,-9999.0,-,N/A,,Overcast,0,2012-12-07 05:35:00
12:55 AM,48.4,48.4,100,30.12,7.0,North,-9999.0,-,N/A,,Overcast,0,2012-12-07 05:55:00
1:15 AM,48.6,48.6,100,30.12,5.0,North,-9999.0,-,N/A,,Overcast,0,2012-12-07 06:15:00
1:35 AM,48.4,48.4,100,30.12,5.0,North,-9999.0,-,N/A,,Overcast,0,2012-12-07 06:35:00
1:55 AM,48.2,48.2,100,30.12,4.0,North,-9999.0,-,N/A,,Overcast,0,2012-12-07 06:55:00
2:15 AM,48.4,48.4,100,30.12,5.0,North,-9999.0,-,N/A,,Overcast,0,2012-12-07 07:15:00
2:35 AM,48.2,48.2,100,30.12,5.0,North,-9999.0,-,N/A,,Overcast,0,2012-12-07 07:35:00
2:55 AM,48.2,48.2,100,30.11,4.0,North,-9999.0,-,N/A,,Overcast,0,2012-12-07 07:55:00
3:15 AM,48.4,48.4,100,30.11,5.0,North,-9999.0,-,N/A,,Overcast,0,2012-12-07 08:15:00
3:35 AM,48.2,48.2,100,30.11,5.0,North,-9999.0,-,N/A,,Overcast,0,2012-12-07 08:35:00
3:55 AM,47.7,47.7,100,30.10,3.0,North,-9999.0,-,N/A,,Mostly Cloudy,0,2012-12-07 08:55:00
4:15 AM,46.9,46.9,100,30.10,4.0,North,-9999.0,-,N/A,,Scattered Clouds,0,2012-12-07 09:15:00
4:35 AM,46.6,46.6,100,30.10,4.0,North,-9999.0,-,N/A,,Mostly Cloudy,0,2012-12-07 09:35:00
4:55 AM,46.8,46.8,100,30.10,5.0,North,-9999.0,-,N/A,,Overcast,0,2012-12-07 09:55:00
5:15 AM,46.6,46.6,100,30.10,4.0,North,-9999.0,-,N/A,,Overcast,0,2012-12-07 10:15:00
5:35 AM,46.8,46.8,100,30.10,4.0,North,-9999.0,-,N/A,,Overcast,0,2012-12-07 10:35:00
5:55 AM,46.6,46.6,100,30.10,5.0,North,-9999.0,-,N/A,,Overcast,0,2012-12-07 10:55:00
6:15 AM,46.4,46.4,100,30.11,4.0,North,-9999.0,-,N/A,,Overcast,0,2012-12-07 11:15:00
6:35 AM,46.6,46.6,100,30.11,4.0,North,-9999.0,-,N/A,,Overcast,0,2012-12-07 11:35:00
6:55 AM,45.7,45.7,100,30.11,3.0,North,-9999.0,-,N/A,,Mostly Cloudy,0,2012-12-07 11:55:00
7:15 AM,45.1,45.1,100,30.11,2.5,North,-9999.0,-,N/A,,Mostly Cloudy,0,2012-12-07 12:15:00
7:35 AM,45.0,45.0,100,30.11,4.0,North,-9999.0,-,N/A,,Overcast,0,2012-12-07 12:35:00
7:55 AM,44.6,44.6,100,30.11,1.0,North,-9999.0,-,N/A,,Overcast,0,2012-12-07 12:55:00
8:15 AM,44.6,44.6,100,30.11,1.0,North,-9999.0,-,N/A,,Mostly Cloudy,0,2012-12-07 13:15:00
8:35 AM,46.0,46.0,100,30.11,5.0,North,-9999.0,-,N/A,,Overcast,0,2012-12-07 13:35:00
8:55 AM,47.7,47.7,100,30.11,7.0,North,-9999.0,-,N/A,,Overcast,0,2012-12-07 13:55:00
9:15 AM,49.1,49.1,100,30.11,10.0,North,-9999.0,-,N/A,,Overcast,0,2012-12-07 14:15:00
9:35 AM,51.1,51.1,100,30.11,10.0,North,-9999.0,-,N/A,,Overcast,0,2012-12-07 14:35:00
9:55 AM,52.9,52.9,100,30.11,10.0,North,-9999.0,-,N/A,,Overcast,0,2012-12-07 14:55:00
10:15 AM,54.9,53.8,96,30.11,10.0,North,-9999.0,-,N/A,,Scattered Clouds,0,2012-12-07 15:15:00
10:35 AM,57.2,53.8,88,30.10,10.0,North,-9999.0,-,N/A,,Clear,0,2012-12-07 15:35:00
10:55 AM,58.1,52.2,81,30.10,10.0,North,-9999.0,-,N/A,,Clear,0,2012-12-07 15:55:00
11:15 AM,59.0,51.6,76,30.09,10.0,North,-9999.0,-,N/A,,Clear,0,2012-12-07 16:15:00
11:35 AM,60.1,51.8,74,30.08,10.0,North,-9999.0,-,N/A,,Clear,0,2012-12-07 16:35:00
11:55 AM,60.8,52.5,74,30.07,10.0,North,-9999.0,-,N/A,,Clear,0,2012-12-07 16:55:00
12:15 PM,61.2,52.5,73,30.06,10.0,North,-9999.0,-,N/A,,Clear,0,2012-12-07 17:15:00
12:35 PM,61.7,52.9,73,30.05,10.0,North,-9999.0,-,N/A,,Clear,0,2012-12-07 17:35:00
12:55 PM,63.3,52.9,69,30.04,10.0,North,-9999.0,-,N/A,,Clear,0,2012-12-07 17:55:00
1:15 PM,64.0,52.7,67,30.03,10.0,North,-9999.0,-,N/A,,Clear,0,2012-12-07 18:15:00
1:35 PM,64.9,52.7,64,30.03,10.0,North,-9999.0,-,N/A,,Clear,0,2012-12-07 18:35:00
1:55 PM,64.8,52.0,63,30.02,10.0,North,-9999.0,-,N/A,,Clear,0,2012-12-07 18:55:00
2:15 PM,65.3,52.2,62,30.01,10.0,North,-9999.0,-,N/A,,Scattered Clouds,0,2012-12-07 19:15:00
2:35 PM,64.9,51.3,61,30.01,10.0,North,-9999.0,-,N/A,,Scattered Clouds,0,2012-12-07 19:35:00
2:55 PM,65.1,51.4,61,30.01,10.0,North,-9999.0,-,N/A,,Mostly Cloudy,0,2012-12-07 19:55:00
3:15 PM,64.6,51.1,62,30.00,10.0,North,-9999.0,-,N/A,,Mostly Cloudy,0,2012-12-07 20:15:00
3:35 PM,64.4,50.4,60,30.00,10.0,North,-9999.0,-,N/A,,Scattered Clouds,0,2012-12-07 20:35:00
3:55 PM,64.2,50.5,61,30.00,10.0,North,-9999.0,-,N/A,,Scattered Clouds,0,2012-12-07 20:55:00
4:15 PM,63.5,51.1,64,30.00,10.0,North,-9999.0,-,N/A,,Scattered Clouds,0,2012-12-07 21:15:00
4:35 PM,60.8,53.1,76,30.00,10.0,North,-9999.0,-,N/A,,Mostly Cloudy,0,2012-12-07 21:35:00
4:55 PM,58.5,52.0,79,30.00,10.0,North,-9999.0,-,N/A,,Scattered Clouds,0,2012-12-07 21:55:00
5:15 PM,55.6,51.3,85,30.00,10.0,North,-9999.0,-,N/A,,Scattered Clouds,0,2012-12-07 22:15:00
5:55 PM,53.1,50.2,90,30.00,10.0,North,-9999.0,-,N/A,,Clear,0,2012-12-07 22:55:00
6:15 PM,51.6,49.3,92,30.00,10.0,North,-9999.0,-,N/A,,Clear,0,2012-12-07 23:15:00
6:35 PM,50.9,49.1,94,30.00,10.0,North,-9999.0,-,N/A,,Clear,0,2012-12-07 23:35:00
7:15 PM,49.1,47.8,95,30.00,10.0,North,-9999.0,-,N/A,,Scattered Clouds,0,2012-12-08 00:15:00
7:35 PM,48.9,47.8,96,30.00,10.0,North,-9999.0,-,N/A,,Clear,0,2012-12-08 00:35:00
7:55 PM,47.8,47.3,98,30.01,10.0,North,-9999.0,-,N/A,,Clear,0,2012-12-08 00:55:00
8:15 PM,46.8,46.0,97,30.01,10.0,North,-9999.0,-,N/A,,Clear,0,2012-12-08 01:15:00
8:35 PM,46.4,45.5,97,30.01,10.0,North,-9999.0,-,N/A,,Clear,0,2012-12-08 01:35:00
8:55 PM,46.4,45.9,98,30.01,10.0,North,-9999.0,-,N/A,,Mostly Cloudy,0,2012-12-08 01:55:00
9:15 PM,47.1,46.4,97,30.01,10.0,North,-9999.0,-,N/A,,Overcast,0,2012-12-08 02:15:00
9:35 PM,47.8,47.3,98,30.00,10.0,North,-9999.0,-,N/A,,Overcast,0,2012-12-08 02:35:00
9:55 PM,48.9,48.0,97,30.00,10.0,North,-9999.0,-,N/A,,Overcast,0,2012-12-08 02:55:00
10:15 PM,49.6,48.4,95,30.00,10.0,North,-9999.0,-,N/A,,Overcast,0,2012-12-08 03:15:00
10:35 PM,50.0,48.7,95,30.00,10.0,North,-9999.0,-,N/A,,Overcast,0,2012-12-08 03:35:00
10:55 PM,50.0,48.9,96,30.00,10.0,North,-9999.0,-,N/A,,Overcast,0,2012-12-08 03:55:00
11:35 PM,49.6,48.9,97,30.00,10.0,North,-9999.0,-,N/A,,Overcast,0,2012-12-08 04:35:00
11:55 PM,50.0,49.1,97,30.00,10.0,North,-9999.0,-,N/A,,Overcast,0,2012-12-08 04:55:00